{"data":{"norad_id":53149,"intl_designator":"2022-083T","name":"STARLINK-4021","alt_names":[],"object_type":"PAYLOAD","status":"ACTIVE","operator":null,"country":"US","launch_date":"2022-07-17","launch_site_code":"AFETR","launch_vehicle":null,"mission":null,"orbit_class":"UNKNOWN","rcs_meters":null,"size_class":null,"mass_kg":null,"dimensions":null,"purposes":["comms"],"wikipedia_slug":null,"has_3d_model":false,"image_url":null,"decayed_at":null,"tle_current":{"epoch":"2026-09-19T22:12:11.416896Z","epoch_age_seconds":121887,"freshness":"FRESH","line1":"1 53149U 22083T   26262.92513214  .00000260  00000+0  18838-4 0  9991","line2":"2 53149  53.1625 358.2253 0001256  85.8499 274.2647 15.34387096230879","mean_motion":15.34387096,"eccentricity":0.0001256,"inclination_deg":53.1625,"raan_deg":358.2253,"arg_perigee_deg":85.8499,"mean_anomaly_deg":274.2647,"bstar":1.8838e-5,"rev_number":23087,"period_min":93.848547329024,"perigee_km":461.8823795319,"apogee_km":463.60080823468,"semimajor_km":6840.8785938833,"source":"CELESTRAK","updated_at":"2026-09-20T09:00:40.181304Z"}}}